Flag for U.S.A. Weather past 2 weeks in Myrtle Beach, South Carolina, U.S.A.

Now
46 °F

Overcast.


Feels Like: 41 °F
Forecast: 49 / 53 °F
Wind: 13 mph from Northeast

Location: Myrtle Beach Air Force Base

Current Time: Dec 21, 2014 at 9:19:50 PM

Latest Report: Dec 21, 2014 at 8:45 PM


Visibility: 10 mi

Pressure: 30.18 "Hg

Humidity: 76%

Dew point: 39 °F

Location of Myrtle BeachLocation

Historic Weather in Myrtle Beach — Graph

°F

Myrtle Beach temperature yesterday

Maximum temperature yesterday: 52 °F (at 2:55 AM)
Minimum temperature yesterday: 43 °F (at 11:35 PM)
Average temperature yesterday: 47 °F

Past Weeks' High & Low Weather Summary

 TemperatureHumidityPressure
High64 °F (Dec 16, 12:45 PM)94% (Dec 6, 7:45 PM)30.33 "Hg (Dec 6, 7:45 PM)
Low28 °F (Dec 12, 5:55 AM)21% (Dec 12, 3:45 PM)29.91 "Hg (Dec 9, 2:45 PM)
Average45 °F72%30.12 "Hg
* Reported Dec 6 7:45 PM — Dec 21 7:50 PM, Myrtle Beach, Weather by CustomWeather, © 2014

Note: Actual official high and low records may vary slightly from our data, if they occured in-between our weather recording intervals... More about our weather records

Advertising

Myrtle Beach weather history for previous 24 hours

 ConditionsComfort  
Time TempWeatherWind HumidityBarometerVisibility
7:50 PM
Dec 21
46 °FMostly cloudy.17 mph82%30.20 "Hg10 mi
5:45 PM48 °FLight rain. Overcast.12 mph82%30.20 "Hg10 mi
4:45 PM52 °FLight rain. Overcast.12 mph62%30.19 "Hg10 mi
3:47 PM52 °FMostly cloudy.12 mph62%30.19 "Hg10 mi
2:50 PM52 °FOvercast.10 mph58%30.19 "Hg10 mi
1:45 PM48 °FMostly cloudy.14 mph66%30.21 "Hg10 mi
12:45 PM48 °FOvercast.10 mph66%30.23 "Hg10 mi
11:45 AM48 °FOvercast.14 mph66%30.26 "Hg10 mi
10:45 AM46 °FOvercast.12 mph66%30.28 "Hg10 mi
8:45 AM43 °FPartly sunny.10 mph76%30.27 "Hg10 mi
7:53 AM43 °FPartly sunny.12 mph76%30.27 "Hg10 mi
6:55 AM43 °FPassing clouds.6 mph76%30.27 "Hg10 mi
5:50 AM43 °FOvercast.13 mph76%30.23 "Hg10 mi
5:35 AM43 °FOvercast.10 mph76%30.22 "Hg10 mi
5:15 AM43 °FOvercast.9 mph76%30.22 "Hg10 mi
4:55 AM43 °FOvercast.8 mph76%30.23 "Hg10 mi
4:35 AM43 °FOvercast.10 mph76%30.22 "Hg10 mi
4:15 AM43 °FMostly cloudy.7 mph81%30.22 "Hg10 mi
3:55 AM43 °FMostly cloudy.10 mph76%30.23 "Hg10 mi
3:35 AM43 °FOvercast.10 mph76%30.23 "Hg10 mi
3:15 AM43 °FOvercast.9 mph81%30.22 "Hg10 mi
2:55 AM43 °FOvercast.10 mph76%30.21 "Hg10 mi
2:35 AM43 °FMostly cloudy.12 mph81%30.21 "Hg10 mi
2:15 AM43 °FMostly cloudy.10 mph81%30.22 "Hg10 mi
1:55 AM43 °FMostly cloudy.10 mph81%30.22 "Hg10 mi
1:35 AM43 °FOvercast.9 mph81%30.23 "Hg8 mi
1:15 AM43 °FMostly cloudy.8 mph81%30.24 "Hg9 mi
12:55 AM43 °FOvercast.6 mph87%30.24 "Hg8 mi
12:35 AM43 °FOvercast.7 mph87%30.23 "Hg8 mi
12:15 AM43 °FMostly cloudy.8 mph87%30.23 "Hg8 mi
11:55 PM
Dec 20
43 °FOvercast.8 mph81%30.24 "Hg10 mi
11:35 PM43 °FOvercast.9 mph87%30.25 "Hg10 mi
11:15 PM45 °FMostly cloudy.9 mph81%30.26 "Hg10 mi
10:55 PM45 °FMostly cloudy.8 mph81%30.26 "Hg10 mi
9:45 PM45 °FMostly cloudy.8 mph81%30.27 "Hg10 mi
Weather by CustomWeather, © 2014

See weather overviewHow to use our weather pages